[[{"header":{"parameterUnit":"m.s-1","parameterCategory":1,"la1":30.2991,"la2":30.254,"lo1":-89.0895,"lo2":-89.0444,"dy":0.0017,"dx":0.0017,"nx":28,"ny":28,"refTime":"2025-07-16T03:00:00:Z","depth":0,"parameterNumber":2,"parameterNumberName":"U-component_of_WINDS"},"data":[0,0,0,0,0,0,0,0,0,0,0,0,0,0,0,0,0,0,0,0,0,0,0,0,0,0,0,0,0,0,0,0,0,0,0,0,0,0,0,0,0,0,0,0,0,0,0,0,0,0,0,0,0,0,0,0,0,0,5.1137,5.1139,0,5.1368,5.1371,5.1374,5.1449,5.1449,5.1448,5.1447,5.1662,5.1668,5.1675,0,0,0,0,0,0,0,0,0,0,0,0,0,5.0736,5.0743,5.1136,5.1139,5.1142,5.1368,5.1371,5.1374,5.145,5.1449,5.1447,5.1446,5.166,5.1668,5.1676,0,0,0,0,0,0,0,0,0,0,0,0,0,5.0932,5.0746,5.1136,5.1208,5.1217,5.1367,5.1371,5.1375,5.145,5.1448,5.1447,5.1446,5.1657,5.1667,5.1677,5.1766,0,0,5.1707,5.1711,0,0,0,0,0,0,0,0,5.0921,5.0947,5.1194,5.1203,5.1213,5.1379,5.1309,5.1505,5.145,5.136,5.1447,5.1445,5.1568,5.1585,5.1631,5.1776,5.1785,5.1708,5.1714,5.1718,5.1721,0,0,0,0,0,0,0,5.0908,5.0937,5.1227,5.1197,5.1209,5.1221,5.1247,5.1347,5.1468,5.1368,5.1374,5.1402,5.1572,5.1621,5.1636,5.1789,5.1708,5.1716,5.1722,5.1726,5.2016,5.2018,0,0,0,0,0,0,5.0885,5.0926,5.122,5.1234,5.1062,5.1229,5.1259,5.1327,5.1468,5.1488,5.1403,5.1405,5.1605,5.1624,5.1644,5.1757,5.1718,5.1727,5.1733,5.2015,5.2017,5.2019,0,0,0,0,0,0,5.0876,5.0911,5.1211,5.1082,5.1121,5.1238,5.1313,5.1332,5.1381,5.1494,5.1514,5.1432,5.1604,5.163,5.1736,5.1765,5.1732,5.1741,5.2012,5.2015,5.2018,5.1984,0,0,0,0,0,0,5.0865,5.0907,5.0948,5.1083,5.1128,5.1306,5.1316,5.1338,5.1401,5.1405,5.1527,5.1545,5.1605,5.1721,5.1746,5.1778,5.1749,5.201,5.2014,5.2017,5.1983,5.1985,5.1987,0,0,0,0,0,5.085,5.0925,5.095,5.0985,5.1182,5.1307,5.1332,5.1406,5.1403,5.1441,5.1513,5.1541,5.1759,5.1731,5.176,5.1796,5.2009,5.2013,5.2016,5.1982,5.1985,5.1987,0,0,0,0,0,0,5.0782,5.0944,5.0973,5.1095,5.1188,5.132,5.1371,5.1407,5.1497,5.1496,5.1577,5.1604,5.1703,5.176,5.1727,5.1888,5.1884,5.1894,5.1848,5.1852,5.1854,5.1836,5.1757,0,0,0,0,0,5.0783,5.0878,5.1011,5.1105,5.1151,5.1253,5.131,5.136,5.1456,5.1493,5.1573,5.1659,5.1747,5.1802,5.1889,5.1992,5.2017,5.203,5.2032,5.2033,5.204,5.2096,5.2102,5.2031,5.2031,5.2031,0,0,5.0781,5.0882,5.0936,5.1094,5.1172,5.1262,5.1285,5.1379,5.1445,5.1505,5.1612,5.1673,5.1774,5.1879,5.1928,5.1929,5.2065,5.2038,5.2038,5.2045,5.21,5.2107,5.2113,5.2034,5.2034,5.2033,0,0,5.0827,5.0914,5.1003,5.1081,5.1202,5.1269,5.1289,5.1417,5.1463,5.1573,5.162,5.1695,5.1845,5.1915,5.197,5.2042,5.2069,5.2067,5.2076,5.213,5.2135,5.214,5.2163,5.2171,5.2073,5.2073,5.2073,0,5.0808,5.0955,5.1041,5.1135,5.12,5.1267,5.1352,5.1422,5.156,5.1601,5.1601,5.1792,5.1864,5.1985,5.2003,5.2046,5.2067,5.2053,5.2129,5.2135,5.2141,5.2164,5.2172,5.2072,5.2072,5.2073,5.2073,0,5.0924,5.1024,5.1079,5.1221,5.1292,5.138,5.1474,5.1534,5.1577,5.1642,5.1751,5.1841,5.1947,5.1979,5.2019,5.2105,5.2101,5.2114,5.2111,5.2145,5.2168,5.2177,5.2071,5.2071,5.2071,5.2072,0,0,5.0932,5.1122,5.1141,5.1205,5.1342,5.1417,5.1505,5.1617,5.1666,5.1758,5.1831,5.1957,5.1971,5.2033,5.2081,5.2128,5.2176,5.2135,5.2139,5.2138,5.2273,5.2261,5.227,5.2197,5.2199,5.22,5.2263,0,5.0993,5.1165,5.1244,5.1376,5.1466,5.153,5.1607,5.1695,5.1757,5.1837,5.1903,5.1991,5.2003,5.2041,5.2091,5.216,5.2204,5.2157,5.2259,5.2262,5.2231,5.2282,5.2271,5.2326,5.2273,5.2275,5.2276,0,5.1088,5.1189,5.1332,5.1459,5.1499,5.1568,5.1675,5.1753,5.1852,5.1894,5.1965,5.2012,5.21,5.2093,5.2213,5.218,5.2226,5.2266,5.2269,5.228,5.2269,5.2291,5.2346,5.2353,5.2291,5.229,5.2289,0,5.1076,5.1247,5.1355,5.1408,5.1559,5.1605,5.1668,5.1767,5.1828,5.1919,5.1959,5.2056,5.2108,5.218,5.2249,5.2238,5.2362,5.2361,5.2394,5.2392,5.2415,5.2412,5.2475,5.2448,5.2448,5.2448,5.2448,0,5.1136,5.1219,5.1352,5.1418,5.1512,5.16,5.1688,5.1755,5.1843,5.1917,5.1976,5.2043,5.2132,5.2209,5.2263,5.2353,5.2376,5.2407,5.242,5.2402,5.2397,5.2431,5.2428,5.245,5.245,5.2449,5.2449,0,5.1138,5.1231,5.1353,5.1488,5.1523,5.1586,5.1698,5.176,5.1826,5.192,5.1946,5.2047,5.2141,5.2219,5.2338,5.2375,5.2467,5.2483,5.2436,5.2443,5.2471,5.2466,5.2556,5.2571,5.2535,5.2535,5.2536,0,5.1169,5.1237,5.138,5.1439,5.1504,5.1595,5.166,5.1747,5.181,5.1929,5.1975,5.2075,5.2159,5.2303,5.2383,5.2474,5.2492,5.2517,5.2505,5.2484,5.2489,5.2484,5.249,5.2516,5.2516,5.2517,5.2517,0,5.1213,5.1257,5.1352,5.1463,5.154,5.1629,5.1719,5.1761,5.1863,5.193,5.2031,5.2096,5.2222,5.2317,5.2418,5.2475,5.2511,5.252,5.2533,5.2513,5.2482,5.2497,5.2436,5.2517,5.2517,5.2517,5.2517,5.2517,5.123,5.1293,5.1405,5.1507,5.1586,5.1669,5.1735,5.1812,5.1899,5.2014,5.2057,5.2158,5.2252,5.2393,5.2451,5.2526,5.2531,5.2548,5.2553,5.2555,5.2552,5.2472,5.2545,5.2545,5.2545,5.2545,5.2545,0,5.1275,5.1352,5.1446,5.1574,5.1653,5.1688,5.1789,5.1851,5.1942,5.2031,5.2114,5.2227,5.232,5.2408,5.2505,5.2548,5.2566,5.257,5.2566,5.2578,5.2544,5.2523,5.2553,5.2553,5.2553,5.2553,5.2553,5.2553,5.1309,5.1416,5.1472,5.1617,5.169,5.1796,5.185,5.1925,5.1996,5.2123,5.2203,5.2263,5.235,5.2453,5.2538,5.2561,5.2592,5.2591,5.2617,5.2583,5.2581,5.2579,5.256,5.2597,5.2597,5.2646,5.2646,5.2646]},{"header":{"parameterUnit":"m.s-1","parameterCategory":1,"la1":30.2991,"la2":30.254,"lo1":-89.0895,"lo2":-89.0444,"dy":0.0017,"dx":0.0017,"nx":28,"ny":28,"refTime":"2025-07-16T03:00:00:Z","depth":0,"parameterNumber":3,"parameterNumberName":"V-component_of_WINDS"},"data":[0,0,0,0,0,0,0,0,0,0,0,0,0,0,0,0,0,0,0,0,0,0,0,0,0,0,0,0,0,0,0,0,0,0,0,0,0,0,0,0,0,0,0,0,0,0,0,0,0,0,0,0,0,0,0,0,0,0,2.4435,2.4434,0,2.4333,2.4332,2.433,2.4348,2.435,2.4352,2.4353,2.4241,2.4236,2.4231,0,0,0,0,0,0,0,0,0,0,0,0,0,2.4641,2.4637,2.4435,2.4434,2.4432,2.4333,2.4331,2.433,2.4348,2.435,2.4352,2.4354,2.4242,2.4237,2.4231,0,0,0,0,0,0,0,0,0,0,0,0,0,2.4546,2.4635,2.4435,2.4429,2.4428,2.4333,2.4331,2.433,2.4347,2.435,2.4353,2.4355,2.4244,2.4237,2.423,2.4132,0,0,2.4209,2.4206,0,0,0,0,0,0,0,0,2.4551,2.4538,2.4432,2.443,2.4428,2.4356,2.4363,2.4263,2.4347,2.4378,2.4353,2.4357,2.4276,2.4267,2.4241,2.4127,2.4122,2.4208,2.4204,2.4201,2.4199,0,0,0,0,0,0,0,2.4558,2.4543,2.4394,2.443,2.4428,2.443,2.442,2.4344,2.4313,2.4375,2.4376,2.4364,2.4276,2.4248,2.4239,2.412,2.4208,2.4202,2.4198,2.4195,2.3923,2.392,0,0,0,0,0,0,2.4567,2.4548,2.4397,2.4391,2.4498,2.4425,2.4413,2.4376,2.4314,2.4307,2.4362,2.4366,2.4259,2.4247,2.4235,2.4117,2.4201,2.4194,2.419,2.3926,2.3922,2.3919,0,0,0,0,0,0,2.4571,2.4553,2.4402,2.447,2.4451,2.4418,2.4377,2.4373,2.4345,2.4304,2.4298,2.434,2.426,2.4245,2.4159,2.4113,2.4191,2.4185,2.3929,2.3925,2.392,2.388,0,0,0,0,0,0,2.4577,2.4555,2.4518,2.4469,2.4447,2.4328,2.4374,2.4369,2.4334,2.4338,2.4281,2.4275,2.4261,2.4169,2.4152,2.4105,2.4179,2.3933,2.3927,2.3922,2.3885,2.3875,2.3866,0,0,0,0,0,2.4584,2.4509,2.4516,2.4498,2.4401,2.4326,2.4313,2.4302,2.433,2.4293,2.4267,2.4276,2.4122,2.416,2.4141,2.4091,2.3936,2.3929,2.3922,2.389,2.3877,2.3866,0,0,0,0,0,0,2.4549,2.4502,2.451,2.4416,2.4376,2.4329,2.4281,2.4288,2.4236,2.4241,2.4227,2.4214,2.4127,2.4101,2.4144,2.3994,2.4033,2.4022,2.4015,2.4002,2.3993,2.4,2.4173,0,0,0,0,0,2.4532,2.4477,2.4437,2.4358,2.4338,2.4313,2.428,2.4275,2.4231,2.4213,2.418,2.4135,2.4077,2.4038,2.3982,2.3883,2.3871,2.3839,2.383,2.3822,2.3812,2.3759,2.3744,2.3897,2.3897,2.3897,0,0,2.4492,2.446,2.4425,2.4351,2.4318,2.426,2.4298,2.4234,2.4191,2.4202,2.412,2.4095,2.4044,2.3951,2.3909,2.3926,2.3768,2.3813,2.3807,2.3801,2.375,2.3736,2.3723,2.3892,2.3893,2.3894,0,0,2.4392,2.4362,2.4294,2.4262,2.4214,2.4199,2.4183,2.4136,2.4121,2.4039,2.4047,2.3995,2.3894,2.3858,2.3826,2.3716,2.3723,2.3698,2.3646,2.3595,2.3583,2.3572,2.3533,2.3519,2.3689,2.3689,2.3689,0,2.4348,2.4263,2.4257,2.4194,2.4161,2.4173,2.4104,2.4072,2.4007,2.3984,2.4006,2.3882,2.3848,2.3748,2.3722,2.3696,2.3676,2.3703,2.3585,2.3574,2.3564,2.3527,2.3512,2.3686,2.3686,2.3687,2.3687,0,2.4213,2.4154,2.4104,2.4045,2.4007,2.3941,2.3924,2.3885,2.3885,2.3867,2.3784,2.3745,2.3682,2.3658,2.3655,2.3558,2.3571,2.3589,2.3627,2.3547,2.3512,2.3497,2.3682,2.3683,2.3684,2.3684,0,0,2.4083,2.4026,2.4007,2.3982,2.3932,2.3885,2.382,2.3762,2.3729,2.3685,2.3629,2.3546,2.3564,2.3528,2.3522,2.3477,2.3393,2.3501,2.3499,2.3482,2.3283,2.3269,2.3253,2.3399,2.3396,2.3394,2.3288,0,2.3978,2.3865,2.386,2.3757,2.3702,2.3715,2.3658,2.3621,2.3603,2.3553,2.3533,2.3475,2.3503,2.3481,2.3437,2.3413,2.3353,2.342,2.3345,2.3342,2.3356,2.3234,2.3218,2.3119,2.3274,2.3271,2.327,0,2.3839,2.3795,2.3687,2.3648,2.3624,2.3574,2.3521,2.3474,2.3432,2.3422,2.3385,2.3386,2.3318,2.3361,2.3267,2.3313,2.3282,2.3266,2.3262,2.3252,2.33,2.322,2.3087,2.3072,2.3248,2.3249,2.3251,0,2.3756,2.3669,2.3594,2.3571,2.3523,2.3488,2.3465,2.3427,2.3393,2.3347,2.3324,2.327,2.3239,2.3196,2.3182,2.3214,2.3088,2.3129,2.3077,2.3077,2.3048,2.305,2.2907,2.303,2.3031,2.3031,2.3031,0,2.3638,2.3571,2.3556,2.351,2.3436,2.343,2.3357,2.3337,2.3303,2.3252,2.3259,2.3211,2.3196,2.3145,2.3134,2.3058,2.3044,2.3033,2.303,2.3031,2.3033,2.3009,2.3015,2.3027,2.3028,2.3029,2.3029,0,2.3531,2.3518,2.3437,2.34,2.339,2.3337,2.3304,2.3259,2.3245,2.318,2.3165,2.314,2.3081,2.3064,2.2991,2.2983,2.2894,2.2898,2.2909,2.2908,2.2857,2.2862,2.2693,2.2671,2.281,2.2809,2.2808,0,2.3455,2.3405,2.3364,2.3333,2.331,2.3258,2.3225,2.3218,2.3183,2.3133,2.3094,2.3036,2.299,2.2894,2.2868,2.2813,2.2815,2.276,2.2806,2.281,2.2813,2.2816,2.2811,2.275,2.2749,2.2748,2.2747,0,2.3323,2.3321,2.3274,2.3226,2.3187,2.3148,2.311,2.3083,2.307,2.303,2.2972,2.2936,2.2864,2.2806,2.2752,2.2727,2.2734,2.2733,2.2718,2.2717,2.2726,2.272,2.2884,2.2736,2.2737,2.2738,2.2738,2.2739,2.3229,2.3186,2.3152,2.31,2.3072,2.3037,2.2994,2.2976,2.2928,2.2871,2.287,2.2806,2.2766,2.2694,2.2667,2.2616,2.2631,2.2609,2.2604,2.2598,2.2594,2.2736,2.2606,2.2606,2.2606,2.2606,2.2606,0,2.3098,2.3077,2.303,2.2979,2.2938,2.2953,2.2913,2.2877,2.2822,2.2787,2.2742,2.2675,2.262,2.2592,2.2537,2.2501,2.2503,2.2487,2.2488,2.2482,2.2583,2.2601,2.2486,2.2486,2.2486,2.2486,2.2486,2.2486,2.3024,2.2952,2.2946,2.2861,2.284,2.278,2.2756,2.2724,2.2696,2.2622,2.2577,2.2561,2.2528,2.2472,2.2421,2.2415,2.2393,2.2375,2.2369,2.2463,2.2475,2.2487,2.2504,2.237,2.237,2.2273,2.2272,2.2272]}]]